ECHOSTAR 14

Last updated on Sun Apr 12 2026 00:02:52 GMT+0000 (Coordinated Universal Time)

1 36499U 10010A 26100.80186363 .00000002 00000+0 00000+0 0 9997 2 36499 0.0203 225.3647 0001603 159.6880 343.7533 1.00272020 45870
UTC large
Height (km)
Speed (km/s)
/
Latitude / Longitude
Inclination (degrees)
Orbital Period (minutes)
Azimuth
Elevation
Range (km)
Doppler Factor

Next 0 passes for location: London (51.5072 / 0.1276)

Sorry there are no passes over London.